When you browse on this site, cookies collect data to enhance your experience and personalize the content and advertising you see.
Visit our Privacy Policy to learn more. By continuing to use the site, you agree to this use of cookies and data.
  • In Hungary
  • List of Countries
  • For 7 days
  • Water Temperature
  • Weather Map
  • News
  • Weather Widgets
  • user-avatar
    Login

    Hourly Weather Rachnevo 1

    Today, 3 April, Friday

    Time Temperature Precipitation Wind Pressure Humidity
    00:00 +1°C° 0 mm 6 mps 737 mmHg 80%
    01:00 +1°C° 0 mm 6 mps 736 mmHg 80%
    02:00 +1°C° 0 mm 6 mps 736 mmHg 79%
    03:00 0°C° 0 mm 7 mps 735 mmHg 80%
    04:00 -1°C° 0 mm 7 mps 734 mmHg 80%
    05:00 -1°C° 0 mm 7 mps 734 mmHg 80%
    06:00 -1°C° 0 mm 8 mps 734 mmHg 82%
    07:00 0°C° 0 mm 8 mps 734 mmHg 84%
    08:00 0°C° 0 mm 9 mps 734 mmHg 85%
    09:00 0°C° 0.1 mm 9 mps 734 mmHg 81%
    10:00 +1°C° 0.1 mm 9 mps 734 mmHg 77%
    11:00 +1°C° 0.1 mm 8 mps 734 mmHg 73%
    12:00 +2°C° 0.1 mm 9 mps 735 mmHg 66%
    13:00 +3°C° 0.1 mm 9 mps 735 mmHg 59%
    14:00 +5°C° 0.1 mm 9 mps 736 mmHg 52%
    15:00 +5°C° 0.1 mm 9 mps 736 mmHg 51%
    16:00 +5°C° 0.1 mm 8 mps 737 mmHg 49%
    17:00 +5°C° 0.1 mm 7 mps 737 mmHg 48%
    18:00 +4°C° 0 mm 6 mps 738 mmHg 53%
    19:00 +2°C° 0 mm 5 mps 739 mmHg 57%
    20:00 +1°C° 0 mm 5 mps 739 mmHg 62%
    21:00 +1°C° 0 mm 5 mps 740 mmHg 66%
    22:00 0°C° 0 mm 5 mps 740 mmHg 70%
    23:00 0°C° 0 mm 5 mps 741 mmHg 75%

    Tomorrow, 4 April, Saturday

    Time Temperature Precipitation Wind Pressure Humidity
    00:00 -1°C° 0 mm 4 mps 741 mmHg 77%
    01:00 -1°C° 0 mm 4 mps 742 mmHg 80%
    02:00 -2°C° 0 mm 4 mps 742 mmHg 82%
    03:00 -2°C° 0 mm 4 mps 743 mmHg 84%
    04:00 -2°C° 0 mm 4 mps 744 mmHg 86%
    05:00 -1°C° 0 mm 3 mps 744 mmHg 88%
    06:00 0°C° 0 mm 3 mps 745 mmHg 83%
    07:00 0°C° 0 mm 4 mps 746 mmHg 78%
    08:00 0°C° 0 mm 4 mps 747 mmHg 73%
    09:00 +3°C° 0 mm 4 mps 747 mmHg 62%
    10:00 +4°C° 0 mm 4 mps 748 mmHg 52%
    11:00 +5°C° 0 mm 5 mps 748 mmHg 41%
    12:00 +6°C° 0.1 mm 5 mps 748 mmHg 41%
    13:00 +6°C° 0.1 mm 5 mps 749 mmHg 41%
    14:00 +6°C° 0.1 mm 5 mps 749 mmHg 41%
    15:00 +6°C° 0.1 mm 5 mps 749 mmHg 43%
    16:00 +6°C° 0.1 mm 5 mps 749 mmHg 44%
    17:00 +5°C° 0.1 mm 5 mps 750 mmHg 46%
    18:00 +3°C° 0.1 mm 5 mps 750 mmHg 53%
    19:00 +3°C° 0.1 mm 4 mps 751 mmHg 59%
    20:00 +1°C° 0.1 mm 4 mps 752 mmHg 66%
    21:00 0°C° 0 mm 4 mps 753 mmHg 68%
    22:00 +1°C° 0 mm 3 mps 753 mmHg 70%
    23:00 0°C° 0 mm 3 mps 754 mmHg 72%

    Day after tomorrow, 5 April, Sunday

    Time Temperature Precipitation Wind Pressure Humidity
    00:00 0°C° 0 mm 3 mps 755 mmHg 75%
    01:00 -2°C° 0 mm 4 mps 755 mmHg 77%
    02:00 -2°C° 0 mm 4 mps 756 mmHg 79%
    03:00 -3°C° 0 mm 4 mps 757 mmHg 79%
    04:00 -3°C° 0 mm 4 mps 757 mmHg 78%
    05:00 -3°C° 0 mm 4 mps 758 mmHg 78%
    06:00 -2°C° 0 mm 4 mps 759 mmHg 68%
    07:00 -1°C° 0 mm 4 mps 760 mmHg 58%
    08:00 0°C° 0 mm 5 mps 760 mmHg 49%
    09:00 +1°C° 0 mm 5 mps 761 mmHg 44%
    10:00 +2°C° 0 mm 5 mps 761 mmHg 39%
    11:00 +3°C° 0 mm 5 mps 762 mmHg 35%
    12:00 +5°C° 0 mm 5 mps 762 mmHg 35%
    13:00 +5°C° 0 mm 5 mps 762 mmHg 34%
    14:00 +6°C° 0 mm 5 mps 762 mmHg 34%
    15:00 +6°C° 0 mm 5 mps 762 mmHg 36%
    16:00 +6°C° 0 mm 4 mps 762 mmHg 37%
    17:00 +6°C° 0 mm 4 mps 762 mmHg 39%
    18:00 +4°C° 0 mm 3 mps 763 mmHg 45%
    19:00 +3°C° 0 mm 3 mps 763 mmHg 51%
    20:00 +2°C° 0 mm 2 mps 763 mmHg 57%
    21:00 +2°C° 0 mm 2 mps 763 mmHg 58%
    22:00 +1°C° 0 mm 2 mps 764 mmHg 59%
    23:00 +2°C° 0 mm 1 mps 764 mmHg 60%

    6 April, Monday

    Time Temperature Precipitation Wind Pressure Humidity
    00:00 +1°C° 0 mm 2 mps 764 mmHg 61%
    01:00 +1°C° 0 mm 2 mps 764 mmHg 61%
    02:00 -1°C° 0 mm 2 mps 764 mmHg 62%
    03:00 -1°C° 0 mm 2 mps 764 mmHg 65%
    04:00 -1°C° 0 mm 2 mps 764 mmHg 67%
    05:00 -1°C° 0 mm 2 mps 764 mmHg 70%
    06:00 0°C° 0 mm 3 mps 764 mmHg 67%
    07:00 +2°C° 0 mm 3 mps 765 mmHg 63%
    08:00 +3°C° 0 mm 3 mps 765 mmHg 60%
    09:00 +5°C° 0 mm 3 mps 765 mmHg 56%
    10:00 +7°C° 0 mm 3 mps 765 mmHg 51%
    11:00 +8°C° 0 mm 4 mps 765 mmHg 47%
    12:00 +10°C° 0 mm 4 mps 764 mmHg 45%
    13:00 +10°C° 0 mm 4 mps 764 mmHg 44%
    14:00 +11°C° 0 mm 4 mps 764 mmHg 42%
    15:00 +11°C° 0 mm 4 mps 764 mmHg 44%
    16:00 +11°C° 0 mm 4 mps 763 mmHg 45%
    17:00 +11°C° 0 mm 4 mps 763 mmHg 46%
    18:00 +9°C° 0 mm 3 mps 763 mmHg 51%
    19:00 +7°C° 0 mm 3 mps 763 mmHg 56%
    20:00 +5°C° 0 mm 3 mps 762 mmHg 61%
    21:00 +4°C° 0 mm 3 mps 762 mmHg 62%
    22:00 +4°C° 0 mm 3 mps 762 mmHg 64%
    23:00 +3°C° 0 mm 3 mps 762 mmHg 66%

    7 April, Tuesday

    Time Temperature Precipitation Wind Pressure Humidity
    00:00 +3°C° 0 mm 3 mps 762 mmHg 68%
    01:00 +2°C° 0 mm 3 mps 762 mmHg 70%
    02:00 +2°C° 0 mm 3 mps 762 mmHg 72%
    03:00 +2°C° 0 mm 3 mps 761 mmHg 74%
    04:00 +1°C° 0 mm 3 mps 761 mmHg 76%
    05:00 +1°C° 0 mm 3 mps 761 mmHg 78%
    06:00 +2°C° 0 mm 3 mps 760 mmHg 74%
    07:00 +4°C° 0 mm 4 mps 760 mmHg 70%
    08:00 +5°C° 0 mm 4 mps 760 mmHg 67%
    09:00 +7°C° 0 mm 4 mps 759 mmHg 62%
    10:00 +9°C° 0 mm 5 mps 759 mmHg 57%
    11:00 +13°C° 0 mm 5 mps 759 mmHg 52%
    12:00 +14°C° 0 mm 5 mps 758 mmHg 49%
    13:00 +15°C° 0 mm 6 mps 758 mmHg 47%
    14:00 +16°C° 0 mm 6 mps 758 mmHg 44%
    15:00 +15°C° 0 mm 6 mps 757 mmHg 48%
    16:00 +15°C° 0 mm 5 mps 757 mmHg 52%
    17:00 +15°C° 0 mm 5 mps 756 mmHg 56%
    18:00 +14°C° 0 mm 5 mps 756 mmHg 63%
    19:00 +11°C° 0 mm 6 mps 757 mmHg 71%
    20:00 +10°C° 0 mm 6 mps 757 mmHg 78%
    21:00 +9°C° 0 mm 6 mps 757 mmHg 77%
    22:00 +7°C° 0 mm 5 mps 758 mmHg 76%
    23:00 +6°C° 0 mm 5 mps 758 mmHg 74%

    8 April, Wednesday

    Time Temperature Precipitation Wind Pressure Humidity
    00:00 +5°C° 0 mm 5 mps 758 mmHg 75%
    01:00 +5°C° 0 mm 4 mps 759 mmHg 76%
    02:00 +4°C° 0 mm 4 mps 759 mmHg 77%
    03:00 +3°C° 0 mm 4 mps 760 mmHg 78%
    04:00 +3°C° 0 mm 4 mps 760 mmHg 79%
    05:00 +1°C° 0 mm 4 mps 760 mmHg 80%
    06:00 +3°C° 0 mm 4 mps 761 mmHg 76%
    07:00 +4°C° 0 mm 4 mps 761 mmHg 72%
    08:00 +5°C° 0 mm 4 mps 761 mmHg 67%
    09:00 +6°C° 0 mm 4 mps 761 mmHg 58%
    10:00 +8°C° 0 mm 4 mps 761 mmHg 50%
    11:00 +11°C° 0 mm 4 mps 761 mmHg 41%
    12:00 +12°C° 0 mm 4 mps 760 mmHg 41%
    13:00 +13°C° 0 mm 4 mps 760 mmHg 41%
    14:00 +14°C° 0 mm 5 mps 759 mmHg 40%
    15:00 +13°C° 0 mm 5 mps 759 mmHg 42%
    16:00 +13°C° 0 mm 5 mps 758 mmHg 44%
    17:00 +13°C° 0 mm 5 mps 757 mmHg 46%
    18:00 +12°C° 0 mm 5 mps 757 mmHg 51%
    19:00 +10°C° 0 mm 4 mps 757 mmHg 56%
    20:00 +8°C° 0 mm 4 mps 756 mmHg 61%
    21:00 +7°C° 0 mm 4 mps 756 mmHg 62%
    22:00 +7°C° 0 mm 4 mps 756 mmHg 63%
    23:00 +6°C° 0 mm 4 mps 756 mmHg 64%
    Show more